| time (UTC) | temp F | wind direction | speed MPH | gust MPH | rain 1hr in | rain 24hr in | rain mn in | humidity % | barometer mb |
| 20260508021551 | 40 | 0 | 0.0 | 0.0 | 0.00 | 0.00 | 0.00 | 81 | 1011.9 |
| 20260508020050 | 40 | 0 | 0.0 | 0.0 | 0.00 | 0.00 | 0.00 | 81 | 1011.9 |
| 20260508014553 | 40 | 0 | 0.0 | 0.0 | 0.00 | 0.00 | 0.00 | 81 | 1012.1 |
| 20260508013042 | 40 | 0 | 0.0 | 0.0 | 0.00 | 0.00 | 0.00 | 80 | 1012.1 |
| 20260508011547 | 40 | 0 | 0.0 | 0.0 | 0.00 | 0.00 | 0.00 | 79 | 1012.0 |
| 20260508010054 | 41 | 0 | 0.0 | 0.0 | 0.00 | 0.00 | 0.00 | 78 | 1012.0 |
| 20260508004552 | 41 | 0 | 0.0 | 0.0 | 0.00 | 0.00 | 0.00 | 78 | 1012.2 |
| 20260508003049 | 41 | 0 | 0.0 | 0.0 | 0.00 | 0.00 | 0.00 | 78 | 1012.3 |
| 20260508001550 | 42 | 0 | 0.0 | 0.0 | 0.00 | 0.00 | 0.00 | 78 | 1012.3 |
| 20260508000048 | 42 | 0 | 0.0 | 0.0 | 0.00 | 0.00 | 0.00 | 77 | 1012.5 |
| 20260507234556 | 43 | 0 | 0.0 | 0.0 | 0.00 | 0.00 | 0.00 | 77 | 1012.7 |
| 20260507233043 | 43 | 0 | 0.0 | 0.0 | 0.00 | 0.00 | 0.00 | 77 | 1012.7 |
| 20260507231555 | 44 | 0 | 0.0 | 0.0 | 0.00 | 0.00 | 0.00 | 76 | 1012.8 |
| 20260507230108 | 45 | 0 | 0.0 | 0.0 | 0.00 | 0.00 | 0.00 | 75 | 1012.9 |
| 20260507224554 | 46 | 0 | 0.0 | 0.0 | 0.00 | 0.00 | 0.00 | 75 | 1012.8 |
| 20260507223053 | 46 | 0 | 0.0 | 0.0 | 0.00 | 0.00 | 0.00 | 74 | 1012.9 |
| 20260507221551 | 47 | 0 | 0.0 | 0.0 | 0.00 | 0.00 | 0.00 | 74 | 1012.9 |
| 20260507220053 | 48 | 0 | 0.0 | 0.0 | 0.00 | 0.00 | 0.00 | 73 | 1012.9 |
| 20260507214552 | 49 | 0 | 0.0 | 0.0 | 0.00 | 0.00 | 0.00 | 75 | 1012.9 |
| 20260507213052 | 49 | 0 | 0.0 | 0.0 | 0.00 | 0.00 | 0.00 | 75 | 1012.7 |
| 20260507211547 | 49 | 0 | 0.0 | 0.0 | 0.00 | 0.00 | 0.00 | 75 | 1012.8 |
| 20260507210106 | 49 | 0 | 0.0 | 0.0 | 0.00 | 0.00 | 0.00 | 74 | 1013.1 |
| 20260507204546 | 49 | 0 | 0.0 | 0.0 | 0.00 | 0.00 | 0.00 | 74 | 1013.0 |
| 20260507203114 | 49 | 0 | 0.0 | 0.0 | 0.00 | 0.00 | 0.00 | 74 | 1013.0 |
| 20260507201545 | 49 | 0 | 0.0 | 0.0 | 0.00 | 0.00 | 0.00 | 74 | 1012.9 |
| 20260507200047 | 50 | 0 | 0.0 | 0.0 | 0.00 | 0.00 | 0.00 | 73 | 1012.8 |
| 20260507194555 | 50 | 0 | 0.0 | 0.0 | 0.00 | 0.00 | 0.00 | 72 | 1012.6 |
| 20260507193044 | 50 | 0 | 0.0 | 0.0 | 0.00 | 0.00 | 0.00 | 71 | 1012.4 |
| 20260507191550 | 51 | 0 | 0.0 | 0.0 | 0.00 | 0.00 | 0.00 | 70 | 1012.4 |
| 20260507190055 | 51 | 0 | 0.0 | 3.0 | 0.00 | 0.00 | 0.00 | 69 | 1012.1 |
| 20260507184551 | 52 | 0 | 0.0 | 4.0 | 0.00 | 0.00 | 0.00 | 68 | 1011.9 |
| 20260507183051 | 52 | 16 | 0.0 | 0.0 | 0.00 | 0.00 | 0.00 | 68 | 1011.8 |
| 20260507181551 | 53 | 0 | 0.0 | 5.0 | 0.00 | 0.00 | 0.00 | 68 | 1011.6 |
| 20260507180050 | 53 | 0 | 0.0 | 10.0 | 0.00 | 0.00 | 0.00 | 68 | 1011.4 |
| 20260507174548 | 54 | 0 | 0.0 | 8.0 | 0.00 | 0.00 | 0.00 | 68 | 1011.3 |
| 20260507173124 | 55 | 0 | 1.0 | 9.0 | 0.00 | 0.00 | 0.00 | 65 | 1011.1 |
| 20260507171549 | 55 | 0 | 0.0 | 0.0 | 0.00 | 0.00 | 0.00 | 65 | 1011.2 |
| 20260507170044 | 56 | 0 | 0.0 | 5.0 | 0.00 | 0.00 | 0.00 | 63 | 1011.2 |
| 20260507164542 | 56 | 360 | 0.0 | 8.0 | 0.00 | 0.00 | 0.00 | 63 | 1011.0 |
| 20260507163046 | 58 | 0 | 0.0 | 6.0 | 0.00 | 0.00 | 0.00 | 60 | 1011.0 |
| 20260507161556 | 58 | 0 | 1.0 | 9.0 | 0.00 | 0.00 | 0.00 | 62 | 1010.9 |
| 20260507160053 | 58 | 0 | 1.0 | 13.0 | 0.00 | 0.00 | 0.00 | 60 | 1010.8 |
| 20260507154550 | 57 | 315 | 3.0 | 13.0 | 0.00 | 0.00 | 0.00 | 61 | 1010.9 |
| 20260507153048 | 58 | 296 | 0.0 | 11.0 | 0.00 | 0.00 | 0.00 | 61 | 1010.9 |
| 20260507151546 | 58 | 0 | 2.0 | 10.0 | 0.00 | 0.00 | 0.00 | 61 | 1010.7 |
| 20260507150045 | 58 | 327 | 1.0 | 12.0 | 0.00 | 0.00 | 0.00 | 60 | 1010.8 |
| 20260507144600 | 60 | 287 | 8.0 | 13.0 | 0.00 | 0.00 | 0.00 | 57 | 1010.6 |
| 20260507143100 | 59 | 315 | 3.0 | 12.0 | 0.00 | 0.00 | 0.00 | 60 | 1010.7 |
| 20260507141558 | 58 | 302 | 1.0 | 8.0 | 0.00 | 0.00 | 0.00 | 61 | 1010.8 |
| 20260507140050 | 58 | 324 | 3.0 | 11.0 | 0.00 | 0.00 | 0.00 | 62 | 1010.8 |
| 20260507134552 | 57 | 302 | 3.0 | 10.0 | 0.00 | 0.01 | 0.00 | 61 | 1010.9 |
| 20260507133111 | 58 | 282 | 2.0 | 12.0 | 0.00 | 0.01 | 0.00 | 61 | 1010.9 |
| 20260507131548 | 56 | 11 | 4.0 | 12.0 | 0.00 | 0.01 | 0.00 | 63 | 1010.9 |
| 20260507130057 | 56 | 360 | 2.0 | 13.0 | 0.00 | 0.01 | 0.00 | 66 | 1010.9 |
| 20260507124550 | 56 | 315 | 4.0 | 12.0 | 0.00 | 0.01 | 0.00 | 67 | 1010.9 |
| 20260507123047 | 53 | 311 | 5.0 | 14.0 | 0.00 | 0.01 | 0.00 | 68 | 1010.9 |
| 20260507121543 | 56 | 0 | 2.0 | 11.0 | 0.00 | 0.01 | 0.00 | 65 | 1010.6 |
| 20260507120040 | 56 | 332 | 4.0 | 13.0 | 0.00 | 0.01 | 0.00 | 64 | 1010.8 |
| 20260507114559 | 54 | 288 | 1.0 | 0.0 | 0.00 | 0.01 | 0.00 | 68 | 1010.9 |
| 20260507113043 | 55 | 300 | 7.0 | 10.0 | 0.00 | 0.01 | 0.00 | 67 | 1010.9 |
| 20260507111553 | 56 | 0 | 0.0 | 12.0 | 0.00 | 0.01 | 0.00 | 66 | 1010.8 |
| 20260507110054 | 54 | 298 | 6.0 | 10.0 | 0.00 | 0.01 | 0.00 | 69 | 1010.9 |
| 20260507104552 | 53 | 360 | 7.0 | 13.0 | 0.00 | 0.01 | 0.00 | 68 | 1011.0 |
| 20260507103100 | 55 | 288 | 5.0 | 12.0 | 0.00 | 0.01 | 0.00 | 68 | 1011.0 |
| 20260507101551 | 53 | 280 | 8.0 | 15.0 | 0.00 | 0.01 | 0.00 | 68 | 1011.0 |
| 20260507100050 | 55 | 304 | 12.0 | 0.0 | 0.00 | 0.01 | 0.00 | 72 | 1011.0 |
| 20260507094557 | 52 | 360 | 3.0 | 17.0 | 0.00 | 0.01 | 0.00 | 73 | 1011.0 |
| 20260507093047 | 51 | 286 | 1.0 | 12.0 | 0.00 | 0.01 | 0.00 | 75 | 1011.0 |
| 20260507091551 | 50 | 279 | 5.0 | 11.0 | 0.00 | 0.01 | 0.00 | 75 | 1010.9 |
| 20260507090047 | 50 | 244 | 1.0 | 12.0 | 0.00 | 0.01 | 0.00 | 76 | 1010.8 |
| 20260507084547 | 50 | 299 | 2.0 | 9.0 | 0.00 | 0.01 | 0.00 | 75 | 1010.6 |
| 20260507083047 | 50 | 239 | 5.0 | 12.0 | 0.00 | 0.01 | 0.00 | 73 | 1010.5 |
| 20260507081541 | 51 | 275 | 3.0 | 11.0 | 0.00 | 0.01 | 0.00 | 72 | 1010.4 |
| 20260507080048 | 50 | 360 | 6.0 | 0.0 | 0.00 | 0.01 | 0.00 | 72 | 1010.3 |
| 20260507074549 | 50 | 258 | 7.0 | 17.0 | 0.00 | 0.01 | 0.00 | 70 | 1010.0 |
| 20260507073102 | 49 | 161 | 8.0 | 16.0 | 0.00 | 0.01 | 0.00 | 71 | 1009.9 |
| 20260507071547 | 50 | 232 | 3.0 | 15.0 | 0.00 | 0.01 | 0.00 | 73 | 1009.8 |
| 20260507070054 | 50 | 0 | 2.0 | 12.0 | 0.00 | 0.01 | 0.00 | 74 | 1009.7 |
| 20260507064555 | 50 | 360 | 3.0 | 13.0 | 0.00 | 0.01 | 0.00 | 74 | 1009.7 |
| 20260507063051 | 49 | 264 | 4.0 | 13.0 | 0.00 | 0.01 | 0.00 | 76 | 1009.6 |
| 20260507061549 | 49 | 179 | 1.0 | 10.0 | 0.00 | 0.01 | 0.00 | 76 | 1009.4 |
| 20260507060054 | 49 | 290 | 3.0 | 10.0 | 0.00 | 0.01 | 0.00 | 75 | 1009.3 |
| 20260507054551 | 49 | 0 | 3.0 | 4.0 | 0.00 | 0.01 | 0.00 | 75 | 1009.2 |
| 20260507053039 | 48 | 244 | 1.0 | 9.0 | 0.00 | 0.01 | 0.00 | 75 | 1009.0 |
| 20260507051544 | 48 | 0 | 0.0 | 9.0 | 0.00 | 0.01 | 0.00 | 75 | 1008.8 |
| 20260507050046 | 47 | 0 | 3.0 | 9.0 | 0.00 | 0.01 | 0.00 | 77 | 1008.7 |
| 20260507044557 | 46 | 226 | 0.0 | 8.0 | 0.00 | 0.01 | 0.00 | 79 | 1008.5 |
| 20260507043042 | 46 | 0 | 0.0 | 7.0 | 0.00 | 0.01 | 0.00 | 79 | 1008.4 |
| 20260507041546 | 46 | 0 | 0.0 | 5.0 | 0.00 | 0.01 | 0.00 | 78 | 1008.2 |
| 20260507040049 | 46 | 0 | 0.0 | 4.0 | 0.00 | 0.01 | 0.00 | 78 | 1008.1 |
| 20260507034545 | 46 | 0 | 0.0 | 4.0 | 0.00 | 0.01 | 0.00 | 78 | 1007.9 |
| 20260507033058 | 46 | 0 | 0.0 | 4.0 | 0.00 | 0.01 | 0.00 | 79 | 1007.9 |
| 20260507031557 | 46 | 0 | 0.0 | 4.0 | 0.00 | 0.01 | 0.00 | 79 | 1007.7 |
| 20260507024604 | 46 | 0 | 0.0 | 4.0 | 0.00 | 0.01 | 0.00 | 80 | 1007.7 |
| 20260507023046 | 45 | 0 | 0.0 | 3.0 | 0.00 | 0.01 | 0.00 | 81 | 1007.6 |